Luz, Portugal

9:02 PM WET on November 23, 2017 (GMT +0000)
Luz

Weather History for 08554 - February, 2014

Change the Weather History Date:

Wednesday, February 26, 2014

  Actual Average Record
Temperature  
Mean Temperature 53 °F -  
Max Temperature 64 °F 63 °F - ()
Min Temperature 42 °F 49 °F - ()
Degree Days  
Heating Degree Days 12    
Growing Degree Days 3 (Base 50)    
Moisture  
Dew Point 45 °F    
Average Humidity 71    
Maximum Humidity 100    
Minimum Humidity 32    
Precipitation  
Precipitation 0.00 in 0.06 in - ()
Sea Level Pressure  
Sea Level Pressure 30.40 in    
Wind  
Wind Speed 7 mph ()    
Max Wind Speed 14 mph    
Max Gust Speed -    
Visibility 6.6 miles    
Events      
T = Trace of Precipitation, MM = Missing Value Source: Averaged Metar Reports

Daily Weather History Graph

Daily Weather History Graph

Search for Another Location

Airport or City:

Trip Planner

Search our weather history database for the weather conditions in past years. The results will help you decide how hot, cold, wet, or windy it might be!

Date:

Astronomy

Feb. 26, 2014 Rise Set
Actual Time 7:07 AM WET 6:22 PM WET
Civil Twilight 6:40 AM WET 6:49 PM WET
Nautical Twilight 6:10 AM WET 7:19 PM WET
Astronomical Twilight 5:40 AM WET 7:49 PM WET
Moon 4:38 AM WET (2/26) 3:24 PM WET (2/26)
Length of Visible Light 12h 08m
Length of Day
11h 15m
Waning Crescent, 12% of the Moon is Illuminated
Feb 26
Waning Crescent
Mar 1
New
Mar 8
First Quarter
Mar 16
Full
Mar 24
Last Quarter

Hourly Weather History & Observations

Time (WET) Temp. Windchill Dew Point Humidity Pressure Visibility Wind Dir Wind Speed Gust Speed Precip Events Conditions
12:00 AM 49 °F - 45 °F 79% 30.34 in 9 mi NW 6.7 mph - -   Clear
12:00 AM 50.0 °F - 46.4 °F 87% 30.30 in - NW 9.2 mph - N/A   Clear
12:30 AM 48.2 °F - 46.4 °F 93% 30.30 in - NW 9.2 mph - N/A   Clear
1:00 AM 49 °F - 44 °F 76% 30.34 in - NW 6.7 mph - -  
1:00 AM 48.2 °F - 46.4 °F 93% 30.30 in - WNW 9.2 mph - N/A   Clear
1:30 AM 48.2 °F - 44.6 °F 87% 30.30 in - WNW 6.9 mph - N/A   Clear
2:00 AM 48 °F - 43 °F 77% 30.35 in - NNW 6.7 mph - -  
2:00 AM 46.4 °F 42.9 °F 44.6 °F 93% 30.33 in - North 6.9 mph - N/A   Clear
2:30 AM 48.2 °F - 44.6 °F 87% 30.33 in - NNW 8.1 mph - N/A   Clear
3:00 AM 47 °F - 42 °F 76% 30.38 in 9 mi NNW 4.5 mph - -   Partly Cloudy
3:00 AM 46.4 °F 42.4 °F 44.6 °F 93% 30.33 in - NNW 8.1 mph - N/A   Clear
3:30 AM 44.6 °F 42.2 °F 42.8 °F 93% 30.33 in - NW 4.6 mph - N/A   Clear
4:00 AM 46 °F - 42 °F 79% 30.36 in - NW 2.2 mph - -  
4:00 AM 44.6 °F 43.1 °F 41.0 °F 87% 30.33 in 6.2 mi NNW 3.5 mph - N/A   Scattered Clouds
4:30 AM 44.6 °F 42.2 °F 44.6 °F 100% 30.33 in 6.2 mi NW 4.6 mph - N/A   Scattered Clouds
5:00 AM 47 °F - 43 °F 79% 30.36 in - WNW 4.5 mph - -  
5:00 AM 46.4 °F 44.3 °F 44.6 °F 93% 30.33 in 6.2 mi WNW 4.6 mph - N/A   Partly Cloudy
5:30 AM 46.4 °F 44.3 °F 44.6 °F 93% 30.33 in - NNE 4.6 mph - N/A   Clear
6:00 AM 46 °F - 41 °F 77% 30.38 in 8 mi NNE 2.2 mph - -   Partly Cloudy
6:00 AM 44.6 °F - 42.8 °F 93% 30.33 in - Variable 2.3 mph - N/A   Clear
6:30 AM 42.8 °F 40.1 °F 41.0 °F 93% 30.36 in 6.2 mi WNW 4.6 mph - N/A   Partly Cloudy
7:00 AM 45 °F - 40 °F 78% 30.40 in - NW 4.5 mph - -  
7:00 AM 44.6 °F 43.1 °F 42.8 °F 93% 30.36 in 6.2 mi North 3.5 mph - N/A   Partly Cloudy
7:30 AM 44.6 °F 43.1 °F 42.8 °F 93% 30.36 in 6.2 mi NNE 3.5 mph - N/A   Partly Cloudy
8:00 AM 46 °F - 41 °F 78% 30.41 in - NNE 2.2 mph - -  
8:00 AM 46.4 °F 45.2 °F 42.8 °F 87% 30.39 in - NNW 3.5 mph - N/A   Clear
8:30 AM 48.2 °F - 44.6 °F 87% 30.39 in - Variable 2.3 mph - N/A   Clear
9:00 AM 52 °F - 47 °F 79% 30.43 in 4 mi West 2.2 mph - -   Mist
9:00 AM 51.8 °F - 50.0 °F 94% 30.39 in 3.7 mi West 3.5 mph - N/A   Partly Cloudy
9:30 AM 53.6 °F - 50.0 °F 88% 30.42 in 5.6 mi West 6.9 mph - N/A   Partly Cloudy
10:00 AM 55 °F - 47 °F 65% 30.45 in - West 6.7 mph - -  
10:00 AM 55.4 °F - 48.2 °F 77% 30.42 in - West 8.1 mph - N/A   Clear
10:30 AM 57.2 °F - 48.2 °F 72% 30.42 in 6.2 mi West 6.9 mph - N/A   Partly Cloudy
11:00 AM 60 °F - 45 °F 47% 30.46 in - NW 8.9 mph - -  
11:00 AM 59.0 °F - 46.4 °F 63% 30.42 in 6.2 mi NW 10.4 mph - N/A   Scattered Clouds
11:30 AM 59.0 °F - 44.6 °F 59% 30.42 in 6.2 mi NNW 11.5 mph - N/A   Scattered Clouds
12:00 PM 61 °F - 43 °F 41% 30.45 in 9 mi NW 11.2 mph - -   Mostly Cloudy
12:00 PM 60.8 °F - 44.6 °F 55% 30.42 in 6.2 mi NW 13.8 mph - N/A   Mostly Cloudy
12:30 PM 60.8 °F - 44.6 °F 55% 30.42 in 6.2 mi NW 8.1 mph - N/A   Scattered Clouds
1:00 PM 63 °F - 44 °F 38% 30.43 in - NNW 6.7 mph - -  
1:00 PM 62.6 °F - 44.6 °F 52% 30.39 in 6.2 mi NW 8.1 mph - N/A   Scattered Clouds
1:30 PM 62.6 °F - 44.6 °F 52% 30.39 in 6.2 mi WNW 8.1 mph - N/A   Scattered Clouds
2:00 PM 64 °F - 43 °F 35% 30.42 in - NW 6.7 mph - -  
2:00 PM 62.6 °F - 44.6 °F 52% 30.39 in 6.2 mi North 6.9 mph - N/A   Scattered Clouds
2:30 PM 62.6 °F - 42.8 °F 48% 30.39 in 6.2 mi North 8.1 mph - N/A   Scattered Clouds
3:00 PM 64 °F - 41 °F 32% 30.41 in 9 mi 4.5 mph - -   Mostly Cloudy
3:00 PM 62.6 °F - 46.4 °F 55% 30.39 in 6.2 mi NW 6.9 mph - N/A   Scattered Clouds
3:30 PM 62.6 °F - 50.0 °F 63% 30.39 in 6.2 mi WSW 11.5 mph - N/A   Scattered Clouds
4:00 PM 62 °F - 48 °F 50% 30.41 in - SW 8.9 mph - -  
4:00 PM 60.8 °F - 50.0 °F 68% 30.39 in 6.2 mi WSW 11.5 mph - N/A   Partly Cloudy
4:30 PM 60.8 °F - 51.8 °F 72% 30.39 in 6.2 mi WSW 12.7 mph - N/A   Partly Cloudy
5:00 PM 60 °F - 49 °F 59% 30.42 in - WSW 8.9 mph - -  
5:00 PM 60.8 °F - 51.8 °F 72% 30.39 in 6.2 mi WSW 11.5 mph - N/A   Partly Cloudy
5:30 PM 60.8 °F - 48.2 °F 63% 30.39 in 6.2 mi NW 6.9 mph - N/A   Partly Cloudy
6:00 PM 62 °F - 40 °F 33% 30.44 in 9 mi North 6.7 mph - -   Clear
6:00 PM 60.8 °F - 42.8 °F 52% 30.42 in - North 9.2 mph - N/A   Clear
6:30 PM 60.8 °F - 42.8 °F 52% 30.42 in - North 9.2 mph - N/A   Clear
7:00 PM 57 °F - 42 °F 47% 30.46 in - WNW 4.5 mph - -  
7:00 PM 59.0 °F - 42.8 °F 55% 30.42 in - North 5.8 mph - N/A   Clear
7:30 PM 55.4 °F - 46.4 °F 72% 30.45 in - WNW 10.4 mph - N/A   Clear
8:00 PM 55 °F - 45 °F 60% 30.48 in - NW 8.9 mph - -  
8:00 PM 55.4 °F - 46.4 °F 72% 30.45 in - NW 12.7 mph - N/A   Clear
8:30 PM 53.6 °F - 46.4 °F 77% 30.45 in - NW 12.7 mph - N/A   Clear
9:00 PM 54 °F - 45 °F 64% 30.50 in 9 mi NW 8.9 mph - -   Clear
9:00 PM 53.6 °F - 48.2 °F 82% 30.45 in - NW 12.7 mph - N/A   Clear
9:30 PM 53.6 °F - 46.4 °F 77% 30.48 in - NNW 13.8 mph - N/A   Clear
10:00 PM 53 °F - 45 °F 65% 30.50 in - NNW 11.2 mph - -  
10:00 PM 51.8 °F - 46.4 °F 82% 30.48 in - NNW 11.5 mph - N/A   Clear
10:30 PM 51.8 °F - 46.4 °F 82% 30.45 in - NNW 10.4 mph - N/A   Clear
11:00 PM 52 °F - 43 °F 64% 30.50 in - NNW 8.9 mph - -  
11:00 PM 51.8 °F - 44.6 °F 76% 30.45 in - NNW 8.1 mph - N/A   Clear
11:30 PM 50.0 °F - 44.6 °F 82% 30.48 in - WSW 4.6 mph - N/A   Clear